Tracking 28799 objects as of 18-Apr-2024
HD Live streaming from Space Station
objects crossing your sky now

COSMOS 482 DESCENT CRAFT

Track COSMOS 482 DESCENT CRAFT now!
10-day predictions
COSMOS 482 DESCENT CRAFT is classified as:


NORAD ID: 6073
Int'l Code: 1972-023E
Perigee: 195.8 km
Apogee: 1,259.8 km
Inclination: 52.0 °
Period: 99.2 minutes
Semi major axis: 7098 km
RCS: 0.7153 m2 (medium)
Launch date: March 31, 1972
Source: Commonwealth of Independent States (former USSR) (CIS)
Launch site: TYURATAM MISSILE AND SPACE COMPLEX (TTMTR)
Your satellite tracking list
Your tracking list is empty




NASA's NSSDC Master Catalog

Two Line Element Set (TLE):
1  6073U 72023E   24108.69472842  .00100887  77627-5  19291-3 0  9990
2  6073  52.0014 244.9254 0749446 232.5993 120.4452 14.51519447692812
Source of the keplerian elements: AFSPC